When you browse on this site, cookies collect data to enhance your experience and personalize the content and advertising you see.
Visit our Privacy Policy to learn more. By continuing to use the site, you agree to this use of cookies and data.
  • In United Kingdom
  • List of Countries
  • For 7 days
  • Water Temperature
  • Weather Map
  • Weather Widgets
  • user-avatar
    Login

    Hourly Weather Falticeni

    Today, 22 September, Sunday

    Time Temperature Precipitation Wind Pressure Humidity
    00:00 +8°C° 0 mm 1 mps 736 mmHg 69%
    01:00 +8°C° 0 mm 1 mps 735 mmHg 70%
    02:00 +7°C° 0 mm 2 mps 735 mmHg 69%
    03:00 +7°C° 0 mm 2 mps 735 mmHg 69%
    04:00 +7°C° 0 mm 2 mps 735 mmHg 70%
    05:00 +8°C° 0 mm 1 mps 734 mmHg 71%
    06:00 +9°C° 0 mm 1 mps 734 mmHg 64%
    07:00 +11°C° 0 mm 1 mps 734 mmHg 58%
    08:00 +13°C° 0 mm 2 mps 735 mmHg 50%
    09:00 +16°C° 0 mm 1 mps 734 mmHg 44%
    10:00 +20°C° 0 mm 1 mps 734 mmHg 38%
    11:00 +21°C° 0 mm 0 mps 734 mmHg 32%
    12:00 +22°C° 0 mm 0 mps 733 mmHg 31%
    13:00 +24°C° 0 mm 1 mps 733 mmHg 30%
    14:00 +25°C° 0 mm 1 mps 733 mmHg 30%
    15:00 +24°C° 0 mm 1 mps 732 mmHg 32%
    16:00 +24°C° 0 mm 1 mps 731 mmHg 34%
    17:00 +23°C° 0 mm 1 mps 731 mmHg 36%
    18:00 +20°C° 0 mm 1 mps 731 mmHg 43%
    19:00 +18°C° 0 mm 1 mps 731 mmHg 50%
    20:00 +14°C° 0 mm 1 mps 731 mmHg 56%
    21:00 +13°C° 0 mm 1 mps 731 mmHg 59%
    22:00 +13°C° 0 mm 1 mps 731 mmHg 61%
    23:00 +12°C° 0 mm 1 mps 731 mmHg 64%

    Tomorrow, 23 September, Monday

    Time Temperature Precipitation Wind Pressure Humidity
    00:00 +12°C° 0 mm 1 mps 731 mmHg 65%
    01:00 +11°C° 0 mm 1 mps 731 mmHg 67%
    02:00 +11°C° 0 mm 1 mps 731 mmHg 68%
    03:00 +11°C° 0 mm 1 mps 730 mmHg 69%
    04:00 +10°C° 0 mm 1 mps 730 mmHg 69%
    05:00 +10°C° 0 mm 1 mps 730 mmHg 70%
    06:00 +11°C° 0 mm 1 mps 730 mmHg 65%
    07:00 +13°C° 0 mm 1 mps 730 mmHg 59%
    08:00 +14°C° 0 mm 1 mps 730 mmHg 54%
    09:00 +16°C° 0 mm 1 mps 730 mmHg 49%
    10:00 +19°C° 0 mm 1 mps 730 mmHg 44%
    11:00 +20°C° 0 mm 2 mps 730 mmHg 39%
    12:00 +21°C° 0 mm 2 mps 730 mmHg 37%
    13:00 +23°C° 0 mm 2 mps 729 mmHg 35%
    14:00 +23°C° 0 mm 2 mps 729 mmHg 34%
    15:00 +23°C° 0 mm 2 mps 729 mmHg 36%
    16:00 +21°C° 0 mm 2 mps 729 mmHg 38%
    17:00 +21°C° 0 mm 2 mps 729 mmHg 40%
    18:00 +20°C° 0 mm 1 mps 729 mmHg 44%
    19:00 +18°C° 0 mm 1 mps 729 mmHg 49%
    20:00 +16°C° 0 mm 1 mps 729 mmHg 53%
    21:00 +15°C° 0 mm 1 mps 729 mmHg 59%
    22:00 +14°C° 0 mm 1 mps 729 mmHg 66%
    23:00 +13°C° 0 mm 2 mps 729 mmHg 72%

    Day after tomorrow, 24 September, Tuesday

    Time Temperature Precipitation Wind Pressure Humidity
    00:00 +12°C° 0 mm 2 mps 729 mmHg 78%
    01:00 +10°C° 0 mm 2 mps 729 mmHg 83%
    02:00 +9°C° 0 mm 2 mps 729 mmHg 89%
    03:00 +9°C° 0 mm 1 mps 729 mmHg 89%
    04:00 +9°C° 0 mm 1 mps 729 mmHg 90%
    05:00 +8°C° 0 mm 1 mps 729 mmHg 90%
    06:00 +9°C° 0 mm 1 mps 729 mmHg 84%
    07:00 +10°C° 0 mm 1 mps 729 mmHg 78%
    08:00 +12°C° 0 mm 1 mps 729 mmHg 72%
    09:00 +13°C° 0 mm 1 mps 729 mmHg 64%
    10:00 +15°C° 0 mm 2 mps 730 mmHg 57%
    11:00 +17°C° 0 mm 2 mps 730 mmHg 50%
    12:00 +18°C° 0 mm 2 mps 729 mmHg 47%
    13:00 +20°C° 0 mm 2 mps 729 mmHg 43%
    14:00 +21°C° 0 mm 2 mps 729 mmHg 40%
    15:00 +21°C° 0 mm 2 mps 729 mmHg 42%
    16:00 +20°C° 0 mm 2 mps 729 mmHg 43%
    17:00 +20°C° 0 mm 2 mps 728 mmHg 44%
    18:00 +18°C° 0 mm 2 mps 728 mmHg 53%
    19:00 +16°C° 0 mm 1 mps 729 mmHg 61%
    20:00 +14°C° 0 mm 1 mps 729 mmHg 69%
    21:00 +13°C° 0 mm 1 mps 729 mmHg 72%
    22:00 +13°C° 0 mm 1 mps 729 mmHg 75%
    23:00 +12°C° 0 mm 1 mps 729 mmHg 78%

    25 September, Wednesday

    Time Temperature Precipitation Wind Pressure Humidity
    00:00 +12°C° 0 mm 1 mps 729 mmHg 80%
    01:00 +11°C° 0 mm 1 mps 728 mmHg 81%
    02:00 +11°C° 0 mm 1 mps 728 mmHg 83%
    03:00 +11°C° 0 mm 1 mps 728 mmHg 84%
    04:00 +11°C° 0 mm 1 mps 728 mmHg 85%
    05:00 +10°C° 0 mm 1 mps 728 mmHg 86%
    06:00 +12°C° 0 mm 1 mps 728 mmHg 79%
    07:00 +13°C° 0 mm 2 mps 728 mmHg 73%
    08:00 +15°C° 0 mm 2 mps 728 mmHg 66%
    09:00 +17°C° 0 mm 3 mps 729 mmHg 60%
    10:00 +19°C° 0 mm 4 mps 729 mmHg 54%
    11:00 +21°C° 0 mm 5 mps 729 mmHg 48%
    12:00 +21°C° 0 mm 5 mps 728 mmHg 46%
    13:00 +21°C° 0 mm 5 mps 728 mmHg 45%
    14:00 +21°C° 0 mm 5 mps 728 mmHg 44%
    15:00 +21°C° 0 mm 5 mps 727 mmHg 47%
    16:00 +20°C° 0 mm 4 mps 727 mmHg 49%
    17:00 +20°C° 0 mm 4 mps 727 mmHg 52%
    18:00 +19°C° 0 mm 3 mps 727 mmHg 55%
    19:00 +18°C° 0 mm 3 mps 727 mmHg 59%
    20:00 +17°C° 0 mm 2 mps 727 mmHg 62%
    21:00 +17°C° 0 mm 2 mps 727 mmHg 65%
    22:00 +16°C° 0 mm 2 mps 727 mmHg 67%
    23:00 +16°C° 0 mm 2 mps 727 mmHg 69%

    26 September, Thursday

    Time Temperature Precipitation Wind Pressure Humidity
    00:00 +16°C° 0.1 mm 1 mps 727 mmHg 74%
    01:00 +15°C° 0.1 mm 1 mps 727 mmHg 78%
    02:00 +15°C° 0.1 mm 1 mps 727 mmHg 83%
    03:00 +15°C° 0.1 mm 1 mps 727 mmHg 85%
    04:00 +14°C° 0.1 mm 1 mps 727 mmHg 86%
    05:00 +13°C° 0.1 mm 0 mps 727 mmHg 88%
    06:00 +13°C° 0.4 mm 0 mps 727 mmHg 90%
    07:00 +13°C° 0.4 mm 0 mps 727 mmHg 92%
    08:00 +13°C° 0.4 mm 0 mps 727 mmHg 93%
    09:00 +14°C° 0.5 mm 1 mps 728 mmHg 93%
    10:00 +14°C° 0.5 mm 1 mps 728 mmHg 93%
    11:00 +14°C° 0.5 mm 1 mps 728 mmHg 93%
    12:00 +15°C° 0.3 mm 1 mps 728 mmHg 92%
    13:00 +15°C° 0.3 mm 2 mps 728 mmHg 91%
    14:00 +15°C° 0.3 mm 2 mps 728 mmHg 90%
    15:00 +14°C° 0.4 mm 2 mps 728 mmHg 91%
    16:00 +14°C° 0.4 mm 1 mps 728 mmHg 93%
    17:00 +14°C° 0.4 mm 1 mps 728 mmHg 94%
    18:00 +14°C° 0.1 mm 1 mps 728 mmHg 94%
    19:00 +14°C° 0.1 mm 1 mps 728 mmHg 94%
    20:00 +13°C° 0.1 mm 1 mps 729 mmHg 93%
    21:00 +13°C° 0 mm 1 mps 729 mmHg 93%
    22:00 +13°C° 0 mm 1 mps 729 mmHg 93%
    23:00 +12°C° 0 mm 1 mps 729 mmHg 93%

    27 September, Friday

    Time Temperature Precipitation Wind Pressure Humidity
    00:00 +12°C° 0 mm 1 mps 729 mmHg 93%
    01:00 +12°C° 0 mm 1 mps 730 mmHg 92%
    02:00 +13°C° 0 mm 1 mps 730 mmHg 91%
    03:00 +13°C° 0.1 mm 1 mps 730 mmHg 91%
    04:00 +13°C° 0.1 mm 2 mps 730 mmHg 91%
    05:00 +13°C° 0.1 mm 2 mps 731 mmHg 91%
    06:00 +13°C° 0 mm 2 mps 731 mmHg 88%
    07:00 +14°C° 0 mm 2 mps 731 mmHg 84%
    08:00 +15°C° 0 mm 2 mps 731 mmHg 80%
    09:00 +16°C° 0 mm 3 mps 731 mmHg 72%
    10:00 +18°C° 0 mm 3 mps 732 mmHg 64%
    11:00 +19°C° 0 mm 3 mps 732 mmHg 55%
    12:00 +20°C° 0 mm 3 mps 732 mmHg 52%
    13:00 +21°C° 0 mm 3 mps 732 mmHg 49%
    14:00 +21°C° 0 mm 3 mps 732 mmHg 46%
    15:00 +21°C° 0 mm 2 mps 731 mmHg 48%
    16:00 +20°C° 0 mm 2 mps 731 mmHg 50%
    17:00 +21°C° 0 mm 1 mps 731 mmHg 52%
    18:00 +19°C° 0 mm 1 mps 732 mmHg 58%
    19:00 +16°C° 0 mm 1 mps 732 mmHg 64%
    20:00 +14°C° 0 mm 0 mps 732 mmHg 70%
    21:00 +13°C° 0 mm 0 mps 733 mmHg 73%
    22:00 +13°C° 0 mm 0 mps 733 mmHg 75%
    23:00 +12°C° 0 mm 0 mps 733 mmHg 77%
    Show more